Weather in Ves'shurga

Russia / Mari El Republic     56°33′07″N   48°48′17″E
temp.,
°C
wind,
m/s
gust,
m/s
humid.,
%
clouds,
%
prec.,
mm/h
press.,
hPa
HPBL,
m
27 february, sat
sat2700:00−14se71494100 5.8 1000673
03:00−13ese61194100 7.5 999507
06:00−13ese51094100 0.7 998406
09:00−12ene5894100 1.4 998423
12:00−10ene5892100 0.7 999580
15:00−11ne5891100 1.3 1001616
18:00−13nne51091100 0.2 1003536
21:00−14nne4994100 0.3 1005362
28 february, sun
sun2800:00−17n499698 0.0 1006238
03:00−19n499676 0.0 1008224
06:00−20n399651 0.0 1009218
09:00−18n489346 0.0 1010267
12:00−15n469059 0.0 1011411
15:00−15n479174 0.0 1013459
18:00−19n3598100 0.0 1015107
21:00−21n239762 0.0 101737
1 march, mon
mon100:00−22n23980 0.0 101932
03:00−22n22980 0.0 102020
06:00−23n22980 0.0 102220
09:00−18n12920 0.0 1023154
12:00−12w118410 0.0 1022378
15:00−11w238949 0.0 1022461
18:00−15sw239790 0.0 102035
21:00−18sw359880 0.0 1020120
2 march, tue
tue200:00−18ssw499875 0.0 1016207
03:00−15ssw5119787 0.1 1012273
06:00−12ssw51194100 0.6 1008404
09:00−9ssw51194100 1.3 1004442
12:00−4s5995100 0.8 1001464
15:00−1s4797100 2.1 999449
18:000wsw2599100 1.1 998220
21:000nw4898100 2.8 999466
3 march, wed
wed300:00−4n51192100 0.9 1000472
03:00−8nnw3897100 0.9 1001233
06:00−9nnw399699 0.1 1002228
09:00−5nnw489496 0.1 1004421
12:00−3nnw589398 0.1 1005633
15:00−3nnw699199 0.4 1006828
18:00−6nnw41187100 0.1 1008712
21:00−11nw389463 0.1 1009151